This is the latest recevied weather packets stored in our database for station/object K6TTR. If no packets are shown the sender has not sent any weather packets the latest 10 day(s).
| Time | Temp. | Humidity | Pressure | Rain* | Wind** | Luminosity | Snow |
|---|---|---|---|---|---|---|---|
| 1777829320 | 15.56° C | 58% | 1013.4 hPa | 0 mm | - | 283 W/m² | - |
| 1777829026 | 15° C | 60% | 1013.4 hPa | 0 mm | - | 267 W/m² | - |
| 1777828728 | 15° C | 58% | 1013.4 hPa | 0 mm | - | 251 W/m² | - |
| 1777828118 | 14.44° C | 63% | 1013.6 hPa | 0 mm | - | 221 W/m² | - |
| 1777827822 | 13.89° C | 64% | 1013.7 hPa | 0 mm | - | 229 W/m² | - |
| 1777827527 | 13.89° C | 63% | 1013.8 hPa | 0 mm | - | 202 W/m² | - |
| 1777827212 | 13.89° C | 64% | 1013.6 hPa | 0 mm | - | 171 W/m² | - |
| 1777826915 | 13.33° C | 65% | 1013.7 hPa | 0 mm | - | 158 W/m² | - |
| 1777826619 | 13.33° C | 65% | 1013.7 hPa | 0 mm | - | 144 W/m² | - |
| 1777826325 | 13.33° C | 64% | 1013.7 hPa | 0 mm | - | 130 W/m² | - |
| 1777826030 | 13.33° C | 66% | 1013.6 hPa | 0 mm | - | 120 W/m² | - |
| 1777825715 | 13.33° C | 64% | 1013.7 hPa | 0 mm | - | 120 W/m² | - |
| 1777825419 | 13.33° C | 65% | 1013.8 hPa | 0 mm | - | 116 W/m² | - |
| 1777825125 | 13.33° C | 65% | 1013.8 hPa | 0 mm | - | 116 W/m² | - |
| 1777824813 | 13.33° C | 66% | 1013.9 hPa | 0 mm | - | 128 W/m² | - |
| 1777824517 | 13.33° C | 67% | 1014 hPa | 0 mm | - | 139 W/m² | - |
| 1777824222 | 12.78° C | 70% | 1014 hPa | 0 mm | - | 146 W/m² | - |
| 1777823926 | 12.78° C | 72% | 1014 hPa | 0 mm | - | 155 W/m² | - |
| 1777823631 | 12.22° C | 74% | 1014 hPa | 0 mm | - | 162 W/m² | - |
| 1777823315 | 12.22° C | 76% | 1014 hPa | 0 mm | - | 165 W/m² | - |
| 1777823022 | 12.22° C | 77% | 1014.1 hPa | 0 mm | - | 158 W/m² | - |
| 1777822726 | 11.67° C | 78% | 1014 hPa | 0 mm | - | 149 W/m² | - |
| 1777822412 | 11.67° C | 79% | 1014.1 hPa | 0 mm | - | 144 W/m² | - |
| 1777822115 | 11.67° C | 80% | 1014.2 hPa | 0 mm | - | 141 W/m² | - |
| 1777821820 | 11.11° C | 82% | 1014.3 hPa | 0 mm | - | 137 W/m² | - |
* Rain latest hour (hover to see other rain measurements)
** Current wind speed in m/s (hover to see current wind gust speed)